IRNSS-1E                
1 41241U 16003A   19266.46155264 -.00000290  00000-0  00000+0 0  9990
2 41241  28.6637 100.6566 0020592 181.5213 357.8081  1.00268466 13547
PSLV R/B                
1 41242U 16003B   19266.02368716  .00000187  00000-0  22291-4 0  9996
2 41242  19.2281 175.8212 6015664 261.0220  30.6024  3.94455933 52912